Yellowstone National Park, WY

6:25 AM MDT on September 29, 2016 (GMT -0600)
Yellowstone

Weather History for KP60 - October, 2012

Change the Weather History Date:

Tuesday, October 9, 2012

  Actual Average Record
Temperature  
Mean Temperature 36 °F 38 °F  
Max Temperature 48 °F 51 °F 65 °F (2015)
Min Temperature 25 °F 25 °F 3 °F (2009)
Degree Days  
Heating Degree Days 29 27  
Month to date heating degree days 228  
Since 1 July heating degree days 1363  
Cooling Degree Days 0 0  
Month to date cooling degree days 0  
Year to date cooling degree days 0  
Moisture  
Dew Point 21 °F    
Average Humidity 59    
Maximum Humidity 78    
Minimum Humidity 39    
Precipitation  
Precipitation 0.00 in 0.04 in 0.39 in (2006)
Month to date precipitation 0.32  
Year to date precipitation 15.69  
Sea Level Pressure  
Sea Level Pressure 30.10 in    
Wind  
Wind Speed 1 mph (WNW)    
Max Wind Speed 6 mph    
Max Gust Speed -    
T = Trace of Precipitation, MM = Missing Value Source: NWS Daily Summary

Daily Weather History Graph

Daily Weather History Graph

Search for Another Location

Airport or City:

Trip Planner

Search our weather history database for the weather conditions in past years. The results will help you decide how hot, cold, wet, or windy it might be!

Date:

Astronomy

Oct. 09, 2012 Rise Set
Actual Time 7:30 AM MDT 6:46 PM MDT
Civil Twilight 7:00 AM MDT 7:15 PM MDT
Nautical Twilight 6:27 AM MDT 7:49 PM MDT
Astronomical Twilight 5:53 AM MDT 8:23 PM MDT
Moon 12:56 AM MDT (10/9) 3:28 PM MDT (10/9)
Length of Visible Light 12h 15m
Length of Day
11h 16m
Last Quarter, 36% of the Moon is Illuminated
Oct 9
Last Quarter
Oct 15
New
Oct 21
First Quarter
Oct 29
Full
Nov 6
Last Quarter

Hourly Weather History & Observations

Time (MDT) Temp. Windchill Dew Point Humidity Pressure Visibility Wind Dir Wind Speed Gust Speed Precip Events Conditions
12:56 AM 27.0 °F - 12.0 °F 53% 29.99 in - Calm Calm - N/A   Unknown
1:56 AM 26.1 °F - 12.9 °F 58% 29.99 in - Calm Calm - N/A   Unknown
2:56 AM 28.0 °F - 15.1 °F 58% 29.99 in - Calm Calm - N/A   Unknown
3:56 AM 28.9 °F - 16.0 °F 58% 29.98 in - Calm Calm - N/A   Unknown
4:56 AM 28.9 °F - 17.1 °F 61% 29.99 in - Calm Calm - N/A   Unknown
5:56 AM 30.0 °F - 19.0 °F 64% 30.01 in - Calm Calm - N/A   Unknown
6:56 AM 30.9 °F - 19.9 °F 64% 30.05 in - Calm Calm - N/A   Unknown
7:56 AM 32.0 °F - 21.9 °F 66% 30.09 in - Calm Calm - N/A   Unknown
8:56 AM 36.0 °F - 25.0 °F 64% 30.11 in - Calm Calm - N/A   Unknown
9:56 AM 39.0 °F - 26.1 °F 60% 30.12 in - Calm Calm - N/A   Unknown
10:56 AM 39.9 °F 35.8 °F 26.1 °F 58% 30.14 in - WNW 5.8 mph - N/A   Unknown
11:56 AM 41.0 °F 37.1 °F 25.0 °F 53% 30.15 in - Variable 5.8 mph - N/A   Unknown
12:56 PM 42.1 °F 38.4 °F 23.0 °F 47% 30.14 in - NW 5.8 mph - N/A   Unknown
1:56 PM 42.1 °F 39.2 °F 24.1 °F 49% 30.15 in - Variable 4.6 mph - N/A   Unknown
2:56 PM 43.0 °F 40.3 °F 24.1 °F 47% 30.13 in - Variable 4.6 mph - N/A   Unknown
3:56 PM 45.0 °F 43.5 °F 23.0 °F 42% 30.12 in - Variable 3.5 mph - N/A   Unknown
4:56 PM 46.9 °F - 23.0 °F 39% 30.10 in - Calm Calm - N/A   Unknown
5:56 PM 45.0 °F - 23.0 °F 42% 30.10 in - Calm Calm - N/A   Unknown
6:56 PM 37.0 °F - 23.0 °F 57% 30.15 in - Calm Calm - N/A   Unknown
7:56 PM 30.0 °F 26.5 °F 21.0 °F 69% 30.19 in - WNW 3.5 mph - N/A   Unknown
8:56 PM 28.0 °F 22.8 °F 19.9 °F 72% 30.19 in - NW 4.6 mph - N/A   Unknown
9:56 PM 27.0 °F - 19.0 °F 72% 30.19 in - Calm Calm - N/A   Unknown
10:56 PM 26.1 °F 21.9 °F 19.0 °F 75% 30.19 in - WNW 3.5 mph - N/A   Unknown
11:56 PM 25.0 °F - 19.0 °F 78% 30.19 in - Calm Calm - N/A   Unknown